Flag for Germany Weather past 2 weeks in Bad Neuenahr-Ahrweiler, Rhineland-Palatinate, Germany

39 °F

Low clouds.

Feels Like: 36 °F
Forecast: 31 / 45 °F
Wind: 5 mph from West

Location: Bonn-Hangelar

Current Time: Nov 25, 2015 at 8:17:05 PM

Latest Report: Nov 25, 2015 at 8:00 PM

Visibility: 3 mi

Pressure: 29.79 "Hg

Humidity: 100%

Dew point: 39 °F

Location of Bad Neuenahr-AhrweilerLocation

Historic Weather in Bad Neuenahr-Ahrweiler — Graph


Bad Neuenahr-Ahrweiler temperature yesterday

Maximum temperature yesterday: 36 °F (at 1:00 PM)
Minimum temperature yesterday: 33 °F (at 2:00 AM)
Average temperature yesterday: 35 °F

Past Weeks' High & Low Weather Summary

High59 °F (Nov 17, 10:00 PM)100% (Nov 17, 12:00 AM)30.34 "Hg (Nov 17, 12:00 AM)
Low32 °F (Nov 23, 4:00 AM)72% (Nov 18, 8:00 AM)29.38 "Hg (Nov 21, 1:00 PM)
Average47 °F90%29.98 "Hg
* Reported Nov 10 7:00 PM — Nov 25 7:00 PM, Bad Neuenahr-Ahrweiler, Weather by CustomWeather, © 2015

Note: Actual official high and low records may vary slightly from our data, if they occured in-between our weather recording intervals... More about our weather records


Bad Neuenahr-Ahrweiler weather history for previous 24 hours

Time TempWeatherWind HumidityBarometerVisibility
7:00 PM
Wed, Nov 25
40 °FLight rain. Passing clouds.5 mph99%29.77 "Hg9 mi
6:00 PM39 °FLow clouds.5 mph98%29.75 "Hg9 mi
5:00 PM40 °FOvercast.3 mph99%29.74 "Hg6 mi
4:00 PM40 °FLow clouds.5 mph98%29.72 "Hg10 mi
3:00 PM40 °FDrizzle. Low clouds.5 mph97%29.71 "Hg13 mi
2:00 PM38 °FLow clouds.8 mph99%29.72 "Hg16 mi
1:00 PM44 °FOvercast.7 mph93%29.71 "Hg15 mi
12:00 PM42 °FOvercast.7 mph93%29.72 "Hg22 mi
11:00 AM42 °FLow clouds.9 mph96%29.73 "Hg9 mi
10:00 AM41 °FLow clouds.6 mph98%29.73 "Hg6 mi
9:00 AM41 °FFog.7 mph100%29.73 "Hg2 mi
7:00 AM41 °FLow clouds.6 mph99%29.72 "Hg4 mi
4:00 AM39 °FLow clouds.7 mph100%29.73 "Hg6 mi
3:00 AM38 °FLight rain. Low clouds.8 mph99%29.74 "Hg4 mi
2:00 AM38 °FDrizzle. Low clouds.9 mph100%29.75 "Hg5 mi
10:00 PM
Tue, Nov 24
36 °FLight rain. Overcast.9 mph97%29.82 "Hg9 mi
9:00 PM36 °FLight rain. Low clouds.10 mph97%29.83 "Hg4 mi
8:00 PM35 °FLight snow. Low clouds.9 mph98%29.85 "Hg9 mi
Weather by CustomWeather, © 2015

See weather overviewHow to use our weather pages